Shenandoah, IA

5:21 AM CDT on May 24, 2018 (GMT -0500)
Shenandoah Municipal

Weather History for KSDA - June, 2014

Change the Weather History Date:

Friday, June 27, 2014

  Actual Average Record
Temperature  
Mean Temperature 75 °F -  
Max Temperature 82 °F 86 °F 105 °F (1980)
Min Temperature 68 °F 63 °F 47 °F (1968)
Cooling Degree Days 10    
Growing Degree Days 25 (Base 50)    
Moisture  
Dew Point 70 °F    
Average Humidity 86    
Maximum Humidity 100    
Minimum Humidity 70    
Precipitation  
Precipitation 0.00 in - - ()
Sea Level Pressure  
Sea Level Pressure 29.81 in    
Wind  
Wind Speed 10 mph (SSE)    
Max Wind Speed 29 mph    
Max Gust Speed 38 mph    
Visibility 10 miles    
Events Rain    
Averages and records for this station are not official NWS values.
T = Trace of Precipitation, MM = Missing Value Source: NWS Daily Summary

Daily Weather History Graph

Daily Weather History Graph

Search for Another Location

Airport or City:

Astronomy

Jun. 27, 2014 Rise Set
Actual Time 5:52 AM CDT 8:57 PM CDT
Civil Twilight 5:18 AM CDT 9:30 PM CDT
Nautical Twilight 4:36 AM CDT 10:12 PM CDT
Astronomical Twilight 3:46 AM CDT 11:03 PM CDT
Moon 6:24 AM CDT (6/27) 9:02 PM CDT (6/27)
Length of Visible Light 16h 11m
Length of Day
15h 04m
New Moon, 0% of the Moon is Illuminated
Jun 27
New Moon
Jul 5
First Quarter
Jul 12
Full
Jul 18
Last Quarter
Jul 26
New

Hourly Weather History & Observations

Time (CDT) Temp. Heat Index Dew Point Humidity Pressure Visibility Wind Dir Wind Speed Gust Speed Precip Events Conditions
12:15 AM 69.8 °F - 68.0 °F 94% 29.86 in 10.0 mi ESE 5.8 mph - N/A   Scattered Clouds
12:35 AM 69.8 °F - 68.0 °F 94% 29.85 in 10.0 mi East 4.6 mph - N/A   Clear
12:55 AM 69.8 °F - 66.2 °F 88% 29.84 in 10.0 mi Calm Calm - N/A   Clear
1:15 AM 69.8 °F - 68.0 °F 94% 29.85 in 10.0 mi ENE 4.6 mph - N/A   Scattered Clouds
1:35 AM 69.8 °F - 66.2 °F 88% 29.85 in 10.0 mi Calm Calm - N/A   Partly Cloudy
1:55 AM 68.0 °F - 66.2 °F 94% 29.85 in 10.0 mi East 4.6 mph - N/A   Mostly Cloudy
2:15 AM 69.8 °F - 68.0 °F 94% 29.85 in 10.0 mi SSE 6.9 mph - N/A   Overcast
2:35 AM 69.8 °F - 68.0 °F 94% 29.85 in 8.0 mi SSE 8.1 mph - N/A   Overcast
2:55 AM 71.6 °F - 69.8 °F 94% 29.84 in 10.0 mi SE 8.1 mph - N/A   Mostly Cloudy
3:15 AM 71.6 °F - 69.8 °F 94% 29.84 in 10.0 mi South 9.2 mph - N/A   Mostly Cloudy
3:35 AM 71.6 °F - 69.8 °F 94% 29.84 in 10.0 mi South 11.5 mph - N/A   Overcast
3:55 AM 69.8 °F - 68.0 °F 94% 29.83 in 8.0 mi ESE 11.5 mph 18.4 mph N/A   Mostly Cloudy
4:15 AM 69.8 °F - 68.0 °F 94% 29.84 in 9.0 mi SE 8.1 mph - N/A   Overcast
4:35 AM 69.8 °F - 68.0 °F 94% 29.83 in 8.0 mi SE 10.4 mph - N/A   Overcast
4:55 AM 69.8 °F - 68.0 °F 94% 29.83 in 10.0 mi SE 11.5 mph - N/A   Overcast
5:15 AM 69.8 °F - 68.0 °F 94% 29.82 in - ESE 10.4 mph - N/A   Unknown
5:35 AM 69.8 °F - 68.0 °F 94% 29.82 in 10.0 mi SE 10.4 mph - N/A   Overcast
5:55 AM 69.8 °F - 68.0 °F 94% 29.81 in 10.0 mi ESE 11.5 mph - N/A   Mostly Cloudy
6:15 AM 69.8 °F - 68.0 °F 94% 29.82 in 10.0 mi SE 8.1 mph - N/A   Mostly Cloudy
6:35 AM 69.8 °F - 69.8 °F 100% 29.80 in 10.0 mi SE 10.4 mph - N/A   Overcast
6:55 AM 71.6 °F - 69.8 °F 94% 29.80 in 10.0 mi SE 15.0 mph - N/A   Mostly Cloudy
7:15 AM 71.6 °F - 69.8 °F 94% 29.80 in 10.0 mi SE 13.8 mph - N/A   Mostly Cloudy
7:35 AM 71.6 °F - 69.8 °F 94% 29.82 in 10.0 mi SSE 10.4 mph 18.4 mph N/A   Scattered Clouds
7:55 AM 73.4 °F - 71.6 °F 94% 29.83 in 10.0 mi SSE 13.8 mph 23.0 mph N/A   Mostly Cloudy
8:15 AM 75.2 °F - 71.6 °F 89% 29.83 in 10.0 mi SSE 13.8 mph 20.7 mph N/A   Mostly Cloudy
8:35 AM 75.2 °F - 71.6 °F 89% 29.84 in 10.0 mi SSE 15.0 mph 23.0 mph N/A   Scattered Clouds
8:55 AM 75.2 °F - 71.6 °F 89% 29.86 in 10.0 mi South 12.7 mph - N/A   Mostly Cloudy
9:15 AM 75.2 °F - 73.4 °F 94% 29.86 in 10.0 mi South 10.4 mph 18.4 mph N/A   Overcast
9:35 AM 75.2 °F - 73.4 °F 94% 29.86 in 10.0 mi South 13.8 mph - N/A   Overcast
9:55 AM 75.2 °F - 73.4 °F 94% 29.85 in 5.0 mi South 15.0 mph 21.9 mph N/A   Overcast
10:15 AM 75.2 °F - 68.0 °F 78% 29.83 in 7.0 mi SSW 18.4 mph - N/A Rain Light Rain
10:35 AM 69.8 °F - 66.2 °F 88% 29.83 in 9.0 mi SSE 17.3 mph 25.3 mph N/A   Overcast
10:55 AM 69.8 °F - 66.2 °F 88% 29.85 in 9.0 mi SSE 8.1 mph 20.7 mph N/A   Overcast
11:15 AM 68.0 °F - 64.4 °F 88% 29.84 in 7.0 mi SE 8.1 mph - N/A Rain Light Rain
11:35 AM 68.0 °F - 66.2 °F 94% 29.85 in 4.0 mi Calm Calm - N/A Rain Light Rain
11:55 AM 69.8 °F - 64.4 °F 83% 29.86 in 9.0 mi South 6.9 mph - N/A   Scattered Clouds
12:15 PM 69.8 °F - 66.2 °F 88% 29.81 in 10.0 mi SE 16.1 mph - N/A   Partly Cloudy
12:35 PM 73.4 °F - 69.8 °F 88% 29.74 in 9.0 mi SE 23.0 mph 33.4 mph N/A   Clear
12:55 PM 73.4 °F - 69.8 °F 88% 29.70 in 8.0 mi SE 28.8 mph 38.0 mph N/A   Clear
1:15 PM 73.4 °F - 71.6 °F 94% 29.70 in 10.0 mi SE 26.5 mph 38.0 mph N/A   Clear
1:35 PM 75.2 °F - 69.8 °F 83% 29.76 in 10.0 mi SE 15.0 mph 31.1 mph N/A   Clear
1:55 PM 75.2 °F - 71.6 °F 89% 29.81 in 10.0 mi West 11.5 mph - N/A   Clear
2:15 PM 75.2 °F - 69.8 °F 83% 29.82 in 10.0 mi SW 15.0 mph - N/A   Mostly Cloudy
2:55 PM 77.0 °F - 71.6 °F 83% 29.79 in 10.0 mi ESE 6.9 mph - N/A   Overcast
3:15 PM 78.8 °F - 73.4 °F 83% 29.78 in 10.0 mi SE 9.2 mph - N/A   Mostly Cloudy
3:35 PM 80.6 °F 86.2 °F 75.2 °F 84% 29.78 in 10.0 mi SSE 15.0 mph 21.9 mph N/A   Mostly Cloudy
3:55 PM 82.4 °F 88.2 °F 73.4 °F 74% 29.77 in 10.0 mi SSE 13.8 mph 26.5 mph N/A   Mostly Cloudy
4:15 PM 82.4 °F 88.2 °F 73.4 °F 74% 29.77 in 10.0 mi South 17.3 mph 25.3 mph N/A   Mostly Cloudy
4:35 PM 82.4 °F 88.2 °F 73.4 °F 74% 29.77 in 10.0 mi South 16.1 mph 23.0 mph N/A   Mostly Cloudy
4:55 PM 80.6 °F 84.6 °F 71.6 °F 74% 29.78 in 10.0 mi South 17.3 mph 24.2 mph N/A   Mostly Cloudy
5:15 PM 80.6 °F 84.6 °F 71.6 °F 74% 29.78 in 10.0 mi South 13.8 mph 25.3 mph N/A   Mostly Cloudy
5:35 PM 80.6 °F 84.6 °F 71.6 °F 74% 29.78 in 10.0 mi South 17.3 mph 23.0 mph N/A   Mostly Cloudy
5:55 PM 80.6 °F 83.9 °F 69.8 °F 70% 29.78 in 10.0 mi South 15.0 mph 25.3 mph N/A   Mostly Cloudy
6:15 PM 80.6 °F 84.6 °F 71.6 °F 74% 29.79 in 10.0 mi South 16.1 mph - N/A   Mostly Cloudy
6:35 PM 78.8 °F - 71.6 °F 78% 29.79 in 10.0 mi South 11.5 mph - N/A   Overcast
6:55 PM 80.6 °F 84.6 °F 71.6 °F 74% 29.78 in 10.0 mi SSE 12.7 mph 19.6 mph N/A   Mostly Cloudy
7:15 PM 78.8 °F - 71.6 °F 78% 29.77 in 10.0 mi SSE 17.3 mph - N/A   Partly Cloudy
7:35 PM 78.8 °F - 71.6 °F 78% 29.78 in 10.0 mi SSE 9.2 mph 16.1 mph N/A   Scattered Clouds
7:55 PM 77.0 °F - 71.6 °F 83% 29.78 in 10.0 mi SSE 9.2 mph - N/A   Mostly Cloudy
8:15 PM 77.0 °F - 71.6 °F 83% 29.76 in 10.0 mi SE 11.5 mph - N/A   Scattered Clouds
8:35 PM 77.0 °F - 71.6 °F 83% 29.76 in 10.0 mi SSE 11.5 mph - N/A   Clear
8:55 PM 77.0 °F - 69.8 °F 78% 29.75 in 10.0 mi SE 11.5 mph - N/A   Clear
9:15 PM 77.0 °F - 69.8 °F 78% 29.75 in 10.0 mi SE 8.1 mph 15.0 mph N/A   Clear
9:35 PM 77.0 °F - 69.8 °F 78% 29.75 in 10.0 mi SE 9.2 mph - N/A   Scattered Clouds
9:55 PM 77.0 °F - 69.8 °F 78% 29.76 in 10.0 mi SSE 10.4 mph - N/A   Overcast
10:15 PM 77.0 °F - 69.8 °F 78% 29.78 in 10.0 mi SSE 8.1 mph - N/A   Overcast
10:35 PM 75.2 °F - 69.8 °F 83% 29.78 in 10.0 mi SSE 8.1 mph - N/A   Mostly Cloudy
10:55 PM 75.2 °F - 69.8 °F 83% 29.79 in 10.0 mi SSE 8.1 mph - N/A   Mostly Cloudy
11:15 PM 75.2 °F - 69.8 °F 83% 29.79 in 10.0 mi SSE 9.2 mph - N/A   Mostly Cloudy
11:35 PM 73.4 °F - 69.8 °F 88% 29.79 in 10.0 mi SSE 8.1 mph - N/A   Scattered Clouds
11:55 PM 73.4 °F - 69.8 °F 88% 29.79 in 10.0 mi South 8.1 mph 13.8 mph N/A   Clear